This is the latest recevied weather packets stored in our database for station/object KF0PEC-15. If no packets are shown the sender has not sent any weather packets the latest 10 day(s).
| Time | Temp. | Humidity | Pressure | Rain* | Wind** | Luminosity | Snow |
|---|---|---|---|---|---|---|---|
| 1777575785 | 6.11° C | 71% | 1023.8 hPa | 0 mm | - | 240 W/m² | - |
| 1777575275 | 6.67° C | 70% | 1023.5 hPa | 0 mm | - | 404 W/m² | - |
| 1777574757 | 6.67° C | 70% | 1023.5 hPa | 0 mm | - | 477 W/m² | - |
| 1777574235 | 6.11° C | 71% | 1023.9 hPa | 0 mm | - | 433 W/m² | - |
| 1777573723 | 6.11° C | 71% | 1024 hPa | 0 mm | - | 385 W/m² | - |
| 1777573177 | 6.11° C | 72% | 1024.5 hPa | 0 mm | - | 382 W/m² | - |
| 1777572630 | 5.56° C | 72% | 1024.7 hPa | 0 mm | - | 368 W/m² | - |
| 1777572130 | 5.56° C | 73% | 1024.8 hPa | 0 mm | - | 240 W/m² | - |
| 1777571640 | 5.56° C | 74% | 1024.7 hPa | 0 mm | - | 207 W/m² | - |
| 1777571095 | 5.56° C | 73% | 1025 hPa | 0 mm | - | 244 W/m² | - |
| 1777570565 | 5.56° C | 73% | 1025 hPa | 0 mm | - | 242 W/m² | - |
| 1777570065 | 5.56° C | 74% | 1024.9 hPa | 0 mm | - | 245 W/m² | - |
| 1777569530 | 5.56° C | 74% | 1025 hPa | 0 mm | - | 182 W/m² | - |
| 1777569015 | 5.56° C | 73% | 1024.8 hPa | 0 mm | - | 258 W/m² | - |
| 1777568525 | 5.56° C | 74% | 1025.2 hPa | 0 mm | - | 323 W/m² | - |
| 1777567995 | 5° C | 74% | 1025.3 hPa | 0 mm | - | 188 W/m² | - |
| 1777567475 | 5.56° C | 74% | 1025.1 hPa | 0 mm | - | 206 W/m² | - |
| 1777566885 | 5° C | 74% | 1025.2 hPa | 0 mm | - | 180 W/m² | - |
| 1777566285 | 5° C | 76% | 1025.4 hPa | 0 mm | - | 182 W/m² | - |
| 1777565757 | 5° C | 76% | 1025.4 hPa | 0 mm | - | 189 W/m² | - |
| 1777565185 | 5° C | 78% | 1025.5 hPa | 0 mm | - | 178 W/m² | - |
| 1777564670 | 5° C | 76% | 1025.5 hPa | 0 mm | - | 163 W/m² | - |
| 1777564075 | 5° C | 79% | 1025.4 hPa | 0 mm | - | 197 W/m² | - |
| 1777563500 | 4.44° C | 81% | 1025.4 hPa | 0 mm | - | 209 W/m² | - |
| 1777562975 | 4.44° C | 83% | 1025.7 hPa | 0 mm | - | 186 W/m² | - |
* Rain latest hour (hover to see other rain measurements)
** Current wind speed in m/s (hover to see current wind gust speed)